Year,Month,Day,Hour,Minute,Value (Times are PST for temperature in C)
2021,08,12,00,00,20.80
2021,08,12,00,01,20.80
2021,08,12,00,02,20.80
2021,08,12,00,03,20.80
2021,08,12,00,04,20.80
2021,08,12,00,05,20.80
2021,08,12,00,06,20.70
2021,08,12,00,07,20.70
2021,08,12,00,08,20.70
2021,08,12,00,09,20.60
2021,08,12,00,10,20.60
2021,08,12,00,11,20.60
2021,08,12,00,12,20.60
2021,08,12,00,13,20.50
2021,08,12,00,14,20.50
2021,08,12,00,15,20.50
2021,08,12,00,16,20.50
2021,08,12,00,17,20.50
2021,08,12,00,18,20.50
2021,08,12,00,19,20.50
2021,08,12,00,20,20.40
2021,08,12,00,21,20.40
2021,08,12,00,22,20.40
2021,08,12,00,23,20.40
2021,08,12,00,24,20.40
2021,08,12,00,25,20.40
2021,08,12,00,26,20.40
2021,08,12,00,27,20.40
2021,08,12,00,28,20.40
2021,08,12,00,29,20.30
2021,08,12,00,30,20.30
2021,08,12,00,31,20.30
2021,08,12,00,32,20.30
2021,08,12,00,33,20.30
2021,08,12,00,34,20.30
2021,08,12,00,35,20.30
2021,08,12,00,36,20.30
2021,08,12,00,37,20.30
2021,08,12,00,38,20.30
2021,08,12,00,39,20.30
2021,08,12,00,40,20.30
2021,08,12,00,41,20.30
2021,08,12,00,42,20.30
2021,08,12,00,43,20.30
2021,08,12,00,44,20.30
2021,08,12,00,45,20.30
2021,08,12,00,46,20.20
2021,08,12,00,47,20.20
2021,08,12,00,48,20.20
2021,08,12,00,49,20.20
2021,08,12,00,50,20.20
2021,08,12,00,51,20.20
2021,08,12,00,52,20.20
2021,08,12,00,53,20.20
2021,08,12,00,54,20.20
2021,08,12,00,55,20.20
2021,08,12,00,56,20.20
2021,08,12,00,57,20.20
2021,08,12,00,58,20.20
2021,08,12,00,59,20.20
2021,08,12,01,00,20.10
2021,08,12,01,01,20.10
2021,08,12,01,02,20.10
2021,08,12,01,03,20.10
2021,08,12,01,04,20.10
2021,08,12,01,05,20.10
2021,08,12,01,06,20.10
2021,08,12,01,07,20.00
2021,08,12,01,08,19.90
2021,08,12,01,09,19.90
2021,08,12,01,10,19.90
2021,08,12,01,11,19.90
2021,08,12,01,12,19.90
2021,08,12,01,13,19.90
2021,08,12,01,14,19.90
2021,08,12,01,15,19.90
2021,08,12,01,16,19.90
2021,08,12,01,17,19.90
2021,08,12,01,18,19.90
2021,08,12,01,19,19.90
2021,08,12,01,20,19.80
2021,08,12,01,21,19.80
2021,08,12,01,22,19.80
2021,08,12,01,23,19.80
2021,08,12,01,24,19.80
2021,08,12,01,25,19.80
2021,08,12,01,26,19.70
2021,08,12,01,27,19.70
2021,08,12,01,28,19.70
2021,08,12,01,29,19.70
2021,08,12,01,30,19.60
2021,08,12,01,31,19.60
2021,08,12,01,32,19.60
2021,08,12,01,33,19.60
2021,08,12,01,34,19.60
2021,08,12,01,35,19.60
2021,08,12,01,36,19.60
2021,08,12,01,37,19.50
2021,08,12,01,38,19.50
2021,08,12,01,39,19.50
2021,08,12,01,40,19.50
2021,08,12,01,41,19.50
2021,08,12,01,42,19.50
2021,08,12,01,43,19.50
2021,08,12,01,44,19.50
2021,08,12,01,45,19.50
2021,08,12,01,46,19.60
2021,08,12,01,47,19.60
2021,08,12,01,48,19.60
2021,08,12,01,49,19.60
2021,08,12,01,50,19.60
2021,08,12,01,51,19.60
2021,08,12,01,52,19.60
2021,08,12,01,53,19.60
2021,08,12,01,54,19.60
2021,08,12,01,55,19.60
2021,08,12,01,56,19.60
2021,08,12,01,57,19.50
2021,08,12,01,58,19.50
2021,08,12,01,59,19.50
2021,08,12,02,00,19.60
2021,08,12,02,01,19.60
2021,08,12,02,02,19.50
2021,08,12,02,03,19.50
2021,08,12,02,04,19.50
2021,08,12,02,05,19.50
2021,08,12,02,06,19.50
2021,08,12,02,07,19.50
2021,08,12,02,08,19.50
2021,08,12,02,09,19.40
2021,08,12,02,10,19.40
2021,08,12,02,11,19.40
2021,08,12,02,12,19.40
2021,08,12,02,13,19.40
2021,08,12,02,14,19.30
2021,08,12,02,15,19.30
2021,08,12,02,16,19.30
2021,08,12,02,17,19.30
2021,08,12,02,18,19.20
2021,08,12,02,19,19.20
2021,08,12,02,20,19.20
2021,08,12,02,21,19.20
2021,08,12,02,22,19.20
2021,08,12,02,23,19.20
2021,08,12,02,24,19.10
2021,08,12,02,25,19.10
2021,08,12,02,26,19.10
2021,08,12,02,27,19.10
2021,08,12,02,28,19.10
2021,08,12,02,29,19.10
2021,08,12,02,30,19.10
2021,08,12,02,31,19.10
2021,08,12,02,32,19.10
2021,08,12,02,33,19.10
2021,08,12,02,34,19.00
2021,08,12,02,35,18.90
2021,08,12,02,36,18.90
2021,08,12,02,37,18.90
2021,08,12,02,38,18.90
2021,08,12,02,39,18.90
2021,08,12,02,40,18.90
2021,08,12,02,41,18.90
2021,08,12,02,42,18.90
2021,08,12,02,43,18.90
2021,08,12,02,44,18.90
2021,08,12,02,45,18.90
2021,08,12,02,46,18.80
2021,08,12,02,47,18.80
2021,08,12,02,48,18.80
2021,08,12,02,49,18.80
2021,08,12,02,50,18.80
2021,08,12,02,51,18.80
2021,08,12,02,52,18.80
2021,08,12,02,53,18.80
2021,08,12,02,54,18.70
2021,08,12,02,55,18.70
2021,08,12,02,56,18.70
2021,08,12,02,57,18.70
2021,08,12,02,58,18.70
2021,08,12,02,59,18.70
2021,08,12,03,00,18.70
2021,08,12,03,01,18.70
2021,08,12,03,02,18.70
2021,08,12,03,03,18.70
2021,08,12,03,04,18.70
2021,08,12,03,05,18.70
2021,08,12,03,06,18.70
2021,08,12,03,07,18.70
2021,08,12,03,08,18.70
2021,08,12,03,09,18.60
2021,08,12,03,10,18.60
2021,08,12,03,11,18.60
2021,08,12,03,12,18.60
2021,08,12,03,13,18.60
2021,08,12,03,14,18.60
2021,08,12,03,15,18.60
2021,08,12,03,16,18.50
2021,08,12,03,17,18.50
2021,08,12,03,18,18.50
2021,08,12,03,19,18.50
2021,08,12,03,20,18.50
2021,08,12,03,21,18.50
2021,08,12,03,22,18.50
2021,08,12,03,23,18.50
2021,08,12,03,24,18.50
2021,08,12,03,25,18.50
2021,08,12,03,26,18.40
2021,08,12,03,27,18.40
2021,08,12,03,28,18.40
2021,08,12,03,29,18.40
2021,08,12,03,30,18.40
2021,08,12,03,31,18.40
2021,08,12,03,32,18.40
2021,08,12,03,33,18.40
2021,08,12,03,34,18.40
2021,08,12,03,35,18.40
2021,08,12,03,36,18.30
2021,08,12,03,37,18.30
2021,08,12,03,38,18.30
2021,08,12,03,39,18.30
2021,08,12,03,40,18.40
2021,08,12,03,41,18.40
2021,08,12,03,42,18.40
2021,08,12,03,43,18.40
2021,08,12,03,44,18.40
2021,08,12,03,45,18.40
2021,08,12,03,46,18.40
2021,08,12,03,47,18.50
2021,08,12,03,48,18.50
2021,08,12,03,49,18.50
2021,08,12,03,50,18.50
2021,08,12,03,51,18.50
2021,08,12,03,52,18.50
2021,08,12,03,53,18.50
2021,08,12,03,54,18.50
2021,08,12,03,55,18.40
2021,08,12,03,56,18.40
2021,08,12,03,57,18.40
2021,08,12,03,58,18.40
2021,08,12,03,59,18.40
2021,08,12,04,00,18.40
2021,08,12,04,01,18.40
2021,08,12,04,02,18.40
2021,08,12,04,03,18.40
2021,08,12,04,04,18.40
2021,08,12,04,05,18.40
2021,08,12,04,06,18.30
2021,08,12,04,07,18.30
2021,08,12,04,08,18.30
2021,08,12,04,09,18.30
2021,08,12,04,10,18.30
2021,08,12,04,11,18.30
2021,08,12,04,12,18.30
2021,08,12,04,13,18.30
2021,08,12,04,14,18.30
2021,08,12,04,15,18.30
2021,08,12,04,16,18.30
2021,08,12,04,17,18.40
2021,08,12,04,18,18.40
2021,08,12,04,19,18.50
2021,08,12,04,20,18.50
2021,08,12,04,21,18.50
2021,08,12,04,22,18.60
2021,08,12,04,23,18.60
2021,08,12,04,24,18.60
2021,08,12,04,25,18.60
2021,08,12,04,26,18.70
2021,08,12,04,27,18.70
2021,08,12,04,28,18.70
2021,08,12,04,29,18.70
2021,08,12,04,30,18.80
2021,08,12,04,31,18.80
2021,08,12,04,32,18.90
2021,08,12,04,33,18.90
2021,08,12,04,34,18.90
2021,08,12,04,35,18.90
2021,08,12,04,36,18.90
2021,08,12,04,37,18.90
2021,08,12,04,38,18.90
2021,08,12,04,39,18.90
2021,08,12,04,40,18.90
2021,08,12,04,41,18.90
2021,08,12,04,42,18.90
2021,08,12,04,43,18.90
2021,08,12,04,44,18.90
2021,08,12,04,45,18.90
2021,08,12,04,46,18.80
2021,08,12,04,47,18.80
2021,08,12,04,48,18.80
2021,08,12,04,49,18.80
2021,08,12,04,50,18.70
2021,08,12,04,51,18.70
2021,08,12,04,52,18.70
2021,08,12,04,53,18.70
2021,08,12,04,54,18.60
2021,08,12,04,55,18.60
2021,08,12,04,56,18.60
2021,08,12,04,57,18.60
2021,08,12,04,58,18.60
2021,08,12,04,59,18.60
2021,08,12,05,00,18.50
2021,08,12,05,01,18.50
2021,08,12,05,02,18.50
2021,08,12,05,03,18.50
2021,08,12,05,04,18.50
2021,08,12,05,05,18.50
2021,08,12,05,06,18.50
2021,08,12,05,07,18.50
2021,08,12,05,08,18.50
2021,08,12,05,09,18.50
2021,08,12,05,10,18.50
2021,08,12,05,11,18.50
2021,08,12,05,12,18.40
2021,08,12,05,13,18.40
2021,08,12,05,14,18.40
2021,08,12,05,15,18.40
2021,08,12,05,16,18.40
2021,08,12,05,17,18.40
2021,08,12,05,18,18.30
2021,08,12,05,19,18.30
2021,08,12,05,20,18.30
2021,08,12,05,21,18.30
2021,08,12,05,22,18.30
2021,08,12,05,23,18.30
2021,08,12,05,24,18.30
2021,08,12,05,25,18.20
2021,08,12,05,26,18.20
2021,08,12,05,27,18.20
2021,08,12,05,28,18.20
2021,08,12,05,29,18.20
2021,08,12,05,30,18.20
2021,08,12,05,31,18.20
2021,08,12,05,32,18.20
2021,08,12,05,33,18.20
2021,08,12,05,34,18.20
2021,08,12,05,35,18.20
2021,08,12,05,36,18.20
2021,08,12,05,37,18.20
2021,08,12,05,38,18.20
2021,08,12,05,39,18.20
2021,08,12,05,40,18.20
2021,08,12,05,41,18.20
2021,08,12,05,42,18.20
2021,08,12,05,43,18.20
2021,08,12,05,44,18.20
2021,08,12,05,45,18.20
2021,08,12,05,46,18.20
2021,08,12,05,47,18.20
2021,08,12,05,48,18.20
2021,08,12,05,49,18.20
2021,08,12,05,50,18.20
2021,08,12,05,51,18.20
2021,08,12,05,52,18.20
2021,08,12,05,53,18.20
2021,08,12,05,54,18.20
2021,08,12,05,55,18.20
2021,08,12,05,56,18.20
2021,08,12,05,57,18.20
2021,08,12,05,58,18.10
2021,08,12,05,59,18.10
2021,08,12,06,00,18.10
2021,08,12,06,01,18.10
2021,08,12,06,02,18.10
2021,08,12,06,03,18.10
2021,08,12,06,04,18.10
2021,08,12,06,05,18.10
2021,08,12,06,06,18.10
2021,08,12,06,07,18.10
2021,08,12,06,08,18.10
2021,08,12,06,09,18.00
2021,08,12,06,10,17.90
2021,08,12,06,11,17.90
2021,08,12,06,12,17.90
2021,08,12,06,13,17.90
2021,08,12,06,14,17.90
2021,08,12,06,15,17.90
2021,08,12,06,16,17.90
2021,08,12,06,17,17.90
2021,08,12,06,18,17.90
2021,08,12,06,19,17.90
2021,08,12,06,20,17.90
2021,08,12,06,21,17.90
2021,08,12,06,22,17.90
2021,08,12,06,23,17.90
2021,08,12,06,24,17.90
2021,08,12,06,25,18.00
2021,08,12,06,26,18.10
2021,08,12,06,27,18.10
2021,08,12,06,28,18.10
2021,08,12,06,29,18.10
2021,08,12,06,30,18.10
2021,08,12,06,31,18.10
2021,08,12,06,32,18.10
2021,08,12,06,33,18.00
2021,08,12,06,34,17.90
2021,08,12,06,35,17.90
2021,08,12,06,36,17.90
2021,08,12,06,37,17.90
2021,08,12,06,38,17.90
2021,08,12,06,39,17.90
2021,08,12,06,40,17.90
2021,08,12,06,41,17.90
2021,08,12,06,42,17.90
2021,08,12,06,43,17.90
2021,08,12,06,44,17.90
2021,08,12,06,45,17.90
2021,08,12,06,46,17.90
2021,08,12,06,47,17.90
2021,08,12,06,48,17.90
2021,08,12,06,49,18.00
2021,08,12,06,50,18.10
2021,08,12,06,51,18.10
2021,08,12,06,52,18.10
2021,08,12,06,53,18.10
2021,08,12,06,54,18.10
2021,08,12,06,55,18.10
2021,08,12,06,56,18.10
2021,08,12,06,57,18.10
2021,08,12,06,58,18.10
2021,08,12,06,59,18.10
2021,08,12,07,00,18.10
2021,08,12,07,01,18.20
2021,08,12,07,02,18.20
2021,08,12,07,03,18.20
2021,08,12,07,04,18.20
2021,08,12,07,05,18.20
2021,08,12,07,06,18.20
2021,08,12,07,07,18.20
2021,08,12,07,08,18.20
2021,08,12,07,09,18.20
2021,08,12,07,10,18.30
2021,08,12,07,11,18.30
2021,08,12,07,12,18.30
2021,08,12,07,13,18.30
2021,08,12,07,14,18.30
2021,08,12,07,15,18.30
2021,08,12,07,16,18.30
2021,08,12,07,17,18.30
2021,08,12,07,18,18.30
2021,08,12,07,19,18.30
2021,08,12,07,20,18.30
2021,08,12,07,21,18.30
2021,08,12,07,22,18.30
2021,08,12,07,23,18.30
2021,08,12,07,24,18.30
2021,08,12,07,25,18.40
2021,08,12,07,26,18.40
2021,08,12,07,27,18.40
2021,08,12,07,28,18.40
2021,08,12,07,29,18.40
2021,08,12,07,30,18.50
2021,08,12,07,31,18.50
2021,08,12,07,32,18.60
2021,08,12,07,33,18.60
2021,08,12,07,34,18.60
2021,08,12,07,35,18.70
2021,08,12,07,36,18.80
2021,08,12,07,37,18.80
2021,08,12,07,38,18.90
2021,08,12,07,39,18.90
2021,08,12,07,40,18.90
2021,08,12,07,41,18.90
2021,08,12,07,42,19.00
2021,08,12,07,43,19.10
2021,08,12,07,44,19.10
2021,08,12,07,45,19.10
2021,08,12,07,46,19.10
2021,08,12,07,47,19.10
2021,08,12,07,48,19.20
2021,08,12,07,49,19.20
2021,08,12,07,50,19.30
2021,08,12,07,51,19.30
2021,08,12,07,52,19.40
2021,08,12,07,53,19.40
2021,08,12,07,54,19.40
2021,08,12,07,55,19.50
2021,08,12,07,56,19.50
2021,08,12,07,57,19.60
2021,08,12,07,58,19.60
2021,08,12,07,59,19.60
2021,08,12,08,00,19.70
2021,08,12,08,01,19.70
2021,08,12,08,02,19.80
2021,08,12,08,03,19.80
2021,08,12,08,04,19.90
2021,08,12,08,05,19.90
2021,08,12,08,06,19.90
2021,08,12,08,07,19.90
2021,08,12,08,08,19.90
2021,08,12,08,09,20.00
2021,08,12,08,10,20.10
2021,08,12,08,11,20.10
2021,08,12,08,12,20.10
2021,08,12,08,13,20.20
2021,08,12,08,14,20.20
2021,08,12,08,15,20.20
2021,08,12,08,16,20.20
2021,08,12,08,17,20.20
2021,08,12,08,18,20.30
2021,08,12,08,19,20.30
2021,08,12,08,20,20.30
2021,08,12,08,21,20.40
2021,08,12,08,22,20.50
2021,08,12,08,23,20.50
2021,08,12,08,24,20.50
2021,08,12,08,25,20.60
2021,08,12,08,26,20.60
2021,08,12,08,27,20.60
2021,08,12,08,28,20.70
2021,08,12,08,29,20.70
2021,08,12,08,30,20.80
2021,08,12,08,31,20.80
2021,08,12,08,32,20.90
2021,08,12,08,33,20.90
2021,08,12,08,34,21.00
2021,08,12,08,35,21.00
2021,08,12,08,36,21.10
2021,08,12,08,37,21.10
2021,08,12,08,38,21.10
2021,08,12,08,39,21.20
2021,08,12,08,40,21.30
2021,08,12,08,41,21.30
2021,08,12,08,42,21.30
2021,08,12,08,43,21.30
2021,08,12,08,44,21.40
2021,08,12,08,45,21.50
2021,08,12,08,46,21.60
2021,08,12,08,47,21.60
2021,08,12,08,48,21.60
2021,08,12,08,49,21.60
2021,08,12,08,50,21.70
2021,08,12,08,51,21.80
2021,08,12,08,52,21.80
2021,08,12,08,53,21.90
2021,08,12,08,54,22.00
2021,08,12,08,55,22.00
2021,08,12,08,56,22.00
2021,08,12,08,57,22.10
2021,08,12,08,58,22.10
2021,08,12,08,59,22.10
2021,08,12,09,00,22.20
2021,08,12,09,01,22.20
2021,08,12,09,02,22.20
2021,08,12,09,03,22.20
2021,08,12,09,04,22.20
2021,08,12,09,05,22.30
2021,08,12,09,06,22.30
2021,08,12,09,07,22.30
2021,08,12,09,08,22.40
2021,08,12,09,09,22.50
2021,08,12,09,10,22.50
2021,08,12,09,11,22.60
2021,08,12,09,12,22.70
2021,08,12,09,13,22.80
2021,08,12,09,14,22.80
2021,08,12,09,15,22.90
2021,08,12,09,16,22.90
2021,08,12,09,17,22.90
2021,08,12,09,18,23.00
2021,08,12,09,19,23.10
2021,08,12,09,20,23.10
2021,08,12,09,21,23.10
2021,08,12,09,22,23.20
2021,08,12,09,23,23.20
2021,08,12,09,24,23.30
2021,08,12,09,25,23.30
2021,08,12,09,26,23.30
2021,08,12,09,27,23.30
2021,08,12,09,28,23.40
2021,08,12,09,29,23.40
2021,08,12,09,30,23.40
2021,08,12,09,31,23.40
2021,08,12,09,32,23.50
2021,08,12,09,33,23.60
2021,08,12,09,34,23.60
2021,08,12,09,35,23.60
2021,08,12,09,36,23.60
2021,08,12,09,37,23.70
2021,08,12,09,38,23.70
2021,08,12,09,39,23.70
2021,08,12,09,40,23.80
2021,08,12,09,41,23.80
2021,08,12,09,42,23.80
2021,08,12,09,43,23.90
2021,08,12,09,44,23.90
2021,08,12,09,45,23.90
2021,08,12,09,46,24.00
2021,08,12,09,47,24.10
2021,08,12,09,48,24.10
2021,08,12,09,49,24.10
2021,08,12,09,50,24.10
2021,08,12,09,51,24.10
2021,08,12,09,52,24.20
2021,08,12,09,53,24.20
2021,08,12,09,54,24.30
2021,08,12,09,55,24.40
2021,08,12,09,56,24.40
2021,08,12,09,57,24.40
2021,08,12,09,58,24.50
2021,08,12,09,59,24.50
2021,08,12,10,00,24.50
2021,08,12,10,01,24.60
2021,08,12,10,02,24.60
2021,08,12,10,03,24.70
2021,08,12,10,04,24.80
2021,08,12,10,05,24.80
2021,08,12,10,06,24.90
2021,08,12,10,07,25.00
2021,08,12,10,08,25.00
2021,08,12,10,09,25.00
2021,08,12,10,10,25.10
2021,08,12,10,11,25.20
2021,08,12,10,12,25.30
2021,08,12,10,13,25.30
2021,08,12,10,14,25.40
2021,08,12,10,15,25.50
2021,08,12,10,16,25.60
2021,08,12,10,17,25.70
2021,08,12,10,18,25.70
2021,08,12,10,19,25.70
2021,08,12,10,20,25.70
2021,08,12,10,21,25.80
2021,08,12,10,22,25.90
2021,08,12,10,23,25.90
2021,08,12,10,24,26.00
2021,08,12,10,25,26.10
2021,08,12,10,26,26.20
2021,08,12,10,27,26.30
2021,08,12,10,28,26.40
2021,08,12,10,29,26.50
2021,08,12,10,30,26.60
2021,08,12,10,31,26.60
2021,08,12,10,32,26.70
2021,08,12,10,33,26.80
2021,08,12,10,34,26.90
2021,08,12,10,35,27.00
2021,08,12,10,36,27.10
2021,08,12,10,37,27.10
2021,08,12,10,38,27.20
2021,08,12,10,39,27.20
2021,08,12,10,40,27.20
2021,08,12,10,41,27.20
2021,08,12,10,42,27.20
2021,08,12,10,43,27.20
2021,08,12,10,44,27.30
2021,08,12,10,45,27.30
2021,08,12,10,46,27.40
2021,08,12,10,47,27.50
2021,08,12,10,48,27.60
2021,08,12,10,49,27.70
2021,08,12,10,50,27.80
2021,08,12,10,51,27.90
2021,08,12,10,52,28.00
2021,08,12,10,53,28.10
2021,08,12,10,54,28.20
2021,08,12,10,55,28.30
2021,08,12,10,56,28.40
2021,08,12,10,57,28.60
2021,08,12,10,58,28.70
2021,08,12,10,59,28.90
2021,08,12,11,00,28.90
2021,08,12,11,01,29.10
2021,08,12,11,02,29.20
2021,08,12,11,03,29.40
2021,08,12,11,04,29.50
2021,08,12,11,05,29.60
2021,08,12,11,06,29.70
2021,08,12,11,07,29.80
2021,08,12,11,08,29.90
2021,08,12,11,09,30.00
2021,08,12,11,10,30.10
2021,08,12,11,11,30.20
2021,08,12,11,12,30.20
2021,08,12,11,13,30.20
2021,08,12,11,14,30.30
2021,08,12,11,15,30.40
2021,08,12,11,16,30.50
2021,08,12,11,17,30.60
2021,08,12,11,18,30.60
2021,08,12,11,19,30.70
2021,08,12,11,20,30.70
2021,08,12,11,21,30.80
2021,08,12,11,22,30.90
2021,08,12,11,23,31.00
2021,08,12,11,24,31.10
2021,08,12,11,25,31.20
2021,08,12,11,26,31.20
2021,08,12,11,27,31.20
2021,08,12,11,28,31.20
2021,08,12,11,29,31.20
2021,08,12,11,30,31.20
2021,08,12,11,31,31.30
2021,08,12,11,32,31.30
2021,08,12,11,33,31.40
2021,08,12,11,34,31.50
2021,08,12,11,35,31.60
2021,08,12,11,36,31.60
2021,08,12,11,37,31.70
2021,08,12,11,38,31.70
2021,08,12,11,39,31.80
2021,08,12,11,40,31.80
2021,08,12,11,41,31.90
2021,08,12,11,42,31.90
2021,08,12,11,43,31.80
2021,08,12,11,44,31.70
2021,08,12,11,45,31.70
2021,08,12,11,46,31.70
2021,08,12,11,47,31.70
2021,08,12,11,48,31.70
2021,08,12,11,49,31.80
2021,08,12,11,50,31.80
2021,08,12,11,51,31.80
2021,08,12,11,52,31.90
2021,08,12,11,53,32.00
2021,08,12,11,54,32.10
2021,08,12,11,55,32.20
2021,08,12,11,56,32.20
2021,08,12,11,57,32.30
2021,08,12,11,58,32.40
2021,08,12,11,59,32.40
2021,08,12,12,00,32.40
2021,08,12,12,01,32.50
2021,08,12,12,02,32.50
2021,08,12,12,03,32.50
2021,08,12,12,04,32.50
2021,08,12,12,05,32.60
2021,08,12,12,06,32.60
2021,08,12,12,07,32.60
2021,08,12,12,08,32.60
2021,08,12,12,09,32.60
2021,08,12,12,10,32.60
2021,08,12,12,11,32.60
2021,08,12,12,12,32.60
2021,08,12,12,13,32.80
2021,08,12,12,14,32.80
2021,08,12,12,15,32.90
2021,08,12,12,16,33.00
2021,08,12,12,17,33.10
2021,08,12,12,18,33.20
2021,08,12,12,19,33.20
2021,08,12,12,20,33.20
2021,08,12,12,21,33.20
2021,08,12,12,22,33.20
2021,08,12,12,23,33.20
2021,08,12,12,24,33.20
2021,08,12,12,25,33.20
2021,08,12,12,26,33.20
2021,08,12,12,27,33.30
2021,08,12,12,28,33.40
2021,08,12,12,29,33.30
2021,08,12,12,30,33.30
2021,08,12,12,31,33.40
2021,08,12,12,32,33.20
2021,08,12,12,33,33.20
2021,08,12,12,34,33.30
2021,08,12,12,35,33.40
2021,08,12,12,36,33.40
2021,08,12,12,37,33.40
2021,08,12,12,38,33.40
2021,08,12,12,39,33.40
2021,08,12,12,40,33.40
2021,08,12,12,41,33.40
2021,08,12,12,42,33.40
2021,08,12,12,43,33.50
2021,08,12,12,44,33.50
2021,08,12,12,45,33.50
2021,08,12,12,46,33.50
2021,08,12,12,47,33.60
2021,08,12,12,48,33.60
2021,08,12,12,49,33.70
2021,08,12,12,50,33.70
2021,08,12,12,51,33.80
2021,08,12,12,52,33.80
2021,08,12,12,53,34.00
2021,08,12,12,54,34.00
2021,08,12,12,55,34.00
2021,08,12,12,56,34.00
2021,08,12,12,57,34.00
2021,08,12,12,58,34.00
2021,08,12,12,59,34.00
2021,08,12,13,00,34.00
2021,08,12,13,01,34.00
2021,08,12,13,02,34.00
2021,08,12,13,03,34.10
2021,08,12,13,04,34.10
2021,08,12,13,05,34.20
2021,08,12,13,06,34.20
2021,08,12,13,07,34.10
2021,08,12,13,08,34.10
2021,08,12,13,09,34.10
2021,08,12,13,10,34.20
2021,08,12,13,11,34.20
2021,08,12,13,12,34.30
2021,08,12,13,13,34.30
2021,08,12,13,14,34.30
2021,08,12,13,15,34.30
2021,08,12,13,16,34.30
2021,08,12,13,17,34.30
2021,08,12,13,18,34.30
2021,08,12,13,19,34.10
2021,08,12,13,20,34.00
2021,08,12,13,21,34.00
2021,08,12,13,22,34.00
2021,08,12,13,23,34.10
2021,08,12,13,24,34.10
2021,08,12,13,25,34.20
2021,08,12,13,26,34.20
2021,08,12,13,27,34.10
2021,08,12,13,28,34.20
2021,08,12,13,29,34.20
2021,08,12,13,30,34.20
2021,08,12,13,31,34.30
2021,08,12,13,32,34.30
2021,08,12,13,33,34.40
2021,08,12,13,34,34.60
2021,08,12,13,35,34.70
2021,08,12,13,36,34.80
2021,08,12,13,37,34.70
2021,08,12,13,38,34.70
2021,08,12,13,39,34.70
2021,08,12,13,40,34.70
2021,08,12,13,41,34.80
2021,08,12,13,42,34.80
2021,08,12,13,43,34.80
2021,08,12,13,44,34.80
2021,08,12,13,45,34.80
2021,08,12,13,46,34.70
2021,08,12,13,47,34.70
2021,08,12,13,48,34.70
2021,08,12,13,49,34.70
2021,08,12,13,50,34.70
2021,08,12,13,51,34.70
2021,08,12,13,52,34.70
2021,08,12,13,53,34.80
2021,08,12,13,54,34.80
2021,08,12,13,55,34.70
2021,08,12,13,56,34.80
2021,08,12,13,57,34.90
2021,08,12,13,58,34.90
2021,08,12,13,59,34.90
2021,08,12,14,00,34.90
2021,08,12,14,01,34.80
2021,08,12,14,02,34.70
2021,08,12,14,03,34.70
2021,08,12,14,04,34.80
2021,08,12,14,05,34.80
2021,08,12,14,06,34.90
2021,08,12,14,07,35.00
2021,08,12,14,08,35.10
2021,08,12,14,09,35.20
2021,08,12,14,10,35.30
2021,08,12,14,11,35.30
2021,08,12,14,12,35.50
2021,08,12,14,13,35.40
2021,08,12,14,14,35.30
2021,08,12,14,15,35.30
2021,08,12,14,16,35.30
2021,08,12,14,17,35.30
2021,08,12,14,18,35.30
2021,08,12,14,19,35.30
2021,08,12,14,20,35.20
2021,08,12,14,21,35.20
2021,08,12,14,22,35.20
2021,08,12,14,23,35.20
2021,08,12,14,24,35.30
2021,08,12,14,25,35.40
2021,08,12,14,26,35.50
2021,08,12,14,27,35.50
2021,08,12,14,28,35.60
2021,08,12,14,29,35.60
2021,08,12,14,30,35.60
2021,08,12,14,31,35.60
2021,08,12,14,32,35.60
2021,08,12,14,33,35.50
2021,08,12,14,34,35.50
2021,08,12,14,35,35.50
2021,08,12,14,36,35.40
2021,08,12,14,37,35.20
2021,08,12,14,38,35.10
2021,08,12,14,39,35.10
2021,08,12,14,40,35.00
2021,08,12,14,41,34.90
2021,08,12,14,42,34.80
2021,08,12,14,43,34.80
2021,08,12,14,44,34.90
2021,08,12,14,45,34.90
2021,08,12,14,46,35.00
2021,08,12,14,47,35.10
2021,08,12,14,48,35.20
2021,08,12,14,49,35.10
2021,08,12,14,50,35.10
2021,08,12,14,51,35.20
2021,08,12,14,52,35.20
2021,08,12,14,53,35.20
2021,08,12,14,54,35.20
2021,08,12,14,55,35.10
2021,08,12,14,56,35.10
2021,08,12,14,57,35.10
2021,08,12,14,58,35.10
2021,08,12,14,59,35.10
2021,08,12,15,00,34.90
2021,08,12,15,01,34.90
2021,08,12,15,02,34.90
2021,08,12,15,03,35.00
2021,08,12,15,04,35.10
2021,08,12,15,05,35.10
2021,08,12,15,06,35.10
2021,08,12,15,07,35.00
2021,08,12,15,08,34.90
2021,08,12,15,09,34.80
2021,08,12,15,10,34.70
2021,08,12,15,11,34.60
2021,08,12,15,12,34.60
2021,08,12,15,13,34.60
2021,08,12,15,14,34.50
2021,08,12,15,15,34.40
2021,08,12,15,16,34.40
2021,08,12,15,17,34.40
2021,08,12,15,18,34.30
2021,08,12,15,19,34.30
2021,08,12,15,20,34.30
2021,08,12,15,21,34.30
2021,08,12,15,22,34.20
2021,08,12,15,23,34.00
2021,08,12,15,24,33.60
2021,08,12,15,25,33.40
2021,08,12,15,26,33.20
2021,08,12,15,27,33.10
2021,08,12,15,28,32.90
2021,08,12,15,29,32.80
2021,08,12,15,30,32.90
2021,08,12,15,31,33.10
2021,08,12,15,32,33.10
2021,08,12,15,33,33.20
2021,08,12,15,34,33.20
2021,08,12,15,35,33.30
2021,08,12,15,36,33.20
2021,08,12,15,37,33.10
2021,08,12,15,38,33.10
2021,08,12,15,39,32.90
2021,08,12,15,40,32.90
2021,08,12,15,41,32.90
2021,08,12,15,42,32.90
2021,08,12,15,43,33.00
2021,08,12,15,44,32.90
2021,08,12,15,45,32.80
2021,08,12,15,46,32.80
2021,08,12,15,47,32.90
2021,08,12,15,48,32.90
2021,08,12,15,49,32.90
2021,08,12,15,50,32.90
2021,08,12,15,51,32.90
2021,08,12,15,52,32.90
2021,08,12,15,53,33.00
2021,08,12,15,54,33.00
2021,08,12,15,55,33.10
2021,08,12,15,56,33.30
2021,08,12,15,57,33.40
2021,08,12,15,58,33.40
2021,08,12,15,59,33.40
2021,08,12,16,00,33.40
2021,08,12,16,01,33.50
2021,08,12,16,02,33.60
2021,08,12,16,03,33.70
2021,08,12,16,04,33.80
2021,08,12,16,05,33.80
2021,08,12,16,06,33.80
2021,08,12,16,07,33.80
2021,08,12,16,08,33.80
2021,08,12,16,09,34.00
2021,08,12,16,10,34.00
2021,08,12,16,11,34.10
2021,08,12,16,12,34.10
2021,08,12,16,13,34.20
2021,08,12,16,14,34.20
2021,08,12,16,15,34.10
2021,08,12,16,16,34.10
2021,08,12,16,17,34.10
2021,08,12,16,18,34.10
2021,08,12,16,19,34.20
2021,08,12,16,20,34.20
2021,08,12,16,21,34.30
2021,08,12,16,22,34.30
2021,08,12,16,23,34.30
2021,08,12,16,24,34.30
2021,08,12,16,25,34.30
2021,08,12,16,26,34.40
2021,08,12,16,27,34.50
2021,08,12,16,28,34.60
2021,08,12,16,29,34.70
2021,08,12,16,30,34.70
2021,08,12,16,31,34.70
2021,08,12,16,32,34.80
2021,08,12,16,33,34.80
2021,08,12,16,34,34.80
2021,08,12,16,35,34.90
2021,08,12,16,36,35.00
2021,08,12,16,37,35.10
2021,08,12,16,38,35.10
2021,08,12,16,39,35.20
2021,08,12,16,40,35.30
2021,08,12,16,41,35.30
2021,08,12,16,42,35.40
2021,08,12,16,43,35.50
2021,08,12,16,44,35.50
2021,08,12,16,45,35.50
2021,08,12,16,46,35.50
2021,08,12,16,47,35.60
2021,08,12,16,48,35.60
2021,08,12,16,49,35.50
2021,08,12,16,50,35.50
2021,08,12,16,51,35.50
2021,08,12,16,52,35.50
2021,08,12,16,53,35.60
2021,08,12,16,54,35.60
2021,08,12,16,55,35.70
2021,08,12,16,56,35.70
2021,08,12,16,57,35.70
2021,08,12,16,58,35.70
2021,08,12,16,59,35.70
2021,08,12,17,00,35.70
2021,08,12,17,01,35.70
2021,08,12,17,02,35.70
2021,08,12,17,03,35.90
2021,08,12,17,04,35.90
2021,08,12,17,05,35.90
2021,08,12,17,06,35.90
2021,08,12,17,07,36.00
2021,08,12,17,08,36.10
2021,08,12,17,09,36.20
2021,08,12,17,10,36.20
2021,08,12,17,11,36.30
2021,08,12,17,12,36.30
2021,08,12,17,13,36.30
2021,08,12,17,14,36.30
2021,08,12,17,15,36.30
2021,08,12,17,16,36.30
2021,08,12,17,17,36.30
2021,08,12,17,18,36.30
2021,08,12,17,19,36.20